Wind_Speed
39 39 39 38 38 39 40 41 43 43 43 42 41 41 40 40 40 41 42 42 42 45 47 48 48 48 48 46 43 44 46 46 46 43 36 34 36 38 36 31 26 21 15 10 8 6 3 2 2 2 2 3 5 7 12 16 18 21 21 24 24 21 22
39 39 39 39 39 40 41 42 43 43 43 43 41 40 40 40 40 41 41 41 42 45 46 48 49 48 48 45 42 43 45 46 47 43 36 32 33 35 33 28 24 20 15 10 8 7 6 4 3 2 2 7 11 11 14 15 18 23 24 24 25 25 26
39 39 39 39 39 41 42 42 43 43 43 42 41 40 40 40 40 40 40 40 42 44 46 48 48 48 48 46 43 43 45 47 47 43 35 31 33 33 30 26 22 20 17 13 9 8 7 6 5 7 11 15 18 17 13 15 20 24 25 26 29 27 28
39 39 39 40 40 41 42 42 43 43 43 42 40 40 39 39 40 39 39 40 42 44 45 48 49 48 48 48 45 44 45 48 48 42 33 31 33 31 27 24 21 19 17 14 11 10 9 8 9 13 16 16 16 14 11 15 21 25 26 28 32 26 25
39 39 40 40 41 42 42 42 43 42 42 41 40 40 39 39 39 39 39 40 41 43 44 47 49 49 49 49 47 45 46 49 49 41 33 31 31 28 25 22 20 18 17 15 13 12 11 13 15 15 17 15 13 12 12 18 24 28 27 25 29 22 21
39 39 40 41 41 42 42 42 42 42 42 41 40 39 39 39 39 39 39 39 41 42 44 47 49 49 49 49 49 46 46 49 48 40 33 30 28 27 24 21 20 18 16 15 14 14 14 15 16 14 15 14 15 14 16 22 25 28 26 21 23 20 18
38 39 40 41 41 41 41 41 42 41 41 41 40 39 39 39 39 39 38 38 40 42 43 46 48 49 49 49 50 48 45 47 47 39 32 28 26 25 24 22 21 20 18 17 15 16 17 16 14 12 13 15 17 17 18 23 25 27 25 18 18 20 20
38 39 40 40 41 41 41 41 41 40 40 40 40 40 40 40 39 38 38 38 40 42 43 45 47 49 49 49 50 49 45 46 46 39 30 27 27 25 24 23 22 20 18 17 16 17 18 18 15 13 15 16 18 20 23 25 22 22 20 11 10 15 19
38 39 40 40 40 40 40 40 40 39 39 39 40 40 40 39 39 38 37 38 40 41 42 45 47 48 49 48 49 50 47 45 46 42 32 27 28 27 24 22 22 20 18 17 17 17 18 18 15 13 14 14 17 24 27 23 19 19 18 10 10 16 20
38 39 40 40 40 39 39 39 39 38 38 38 39 40 40 39 38 38 37 37 39 40 41 44 46 48 49 49 49 50 49 47 46 44 36 29 28 27 25 22 21 20 17 16 16 15 15 16 15 12 12 14 17 22 21 18 20 23 19 13 15 20 23
38 38 39 40 40 38 38 39 39 37 37 37 38 39 39 39 38 37 37 37 38 39 40 43 45 47 49 49 49 49 49 48 46 43 40 34 31 30 25 21 20 19 17 16 14 14 14 14 15 12 12 16 17 17 17 19 23 25 18 13 16 20 22
38 38 39 40 39 38 37 38 38 37 37 37 38 39 39 39 38 37 36 36 37 38 40 42 44 46 48 48 48 48 48 48 46 43 39 34 33 33 28 22 21 19 18 17 15 15 13 14 18 16 16 18 17 17 19 22 23 24 18 14 16 19 20
37 38 38 39 39 37 37 37 38 37 37 37 37 38 38 39 38 37 36 35 36 38 39 41 43 45 47 48 47 46 46 47 45 43 38 32 29 31 30 24 22 21 21 20 18 16 15 21 23 20 19 19 20 19 18 17 19 20 16 13 15 16 17
37 38 38 39 38 37 36 37 37 37 37 37 37 37 38 38 38 37 36 35 35 37 38 40 42 44 46 47 47 45 44 45 45 42 38 32 25 25 27 24 21 21 21 19 16 16 21 25 23 22 19 19 20 18 14 12 12 13 12 13 12 12 13
37 38 38 38 38 36 35 36 36 36 36 37 37 37 37 38 38 37 35 34 34 36 38 39 41 43 44 46 46 45 43 43 44 42 39 34 27 21 21 21 19 18 17 15 14 17 23 24 20 20 20 19 18 17 15 12 12 12 13 13 13 13 12
37 38 38 38 38 36 34 35 36 36 36 36 36 36 37 37 37 37 35 34 34 35 37 39 40 41 43 44 44 44 42 41 43 43 40 36 31 24 19 16 15 15 14 14 15 18 22 21 17 16 18 17 16 18 17 15 15 15 14 13 13 13 13
37 38 38 38 38 35 34 34 35 36 36 36 36 35 36 36 37 36 35 33 33 34 35 37 39 40 42 43 43 42 41 40 40 42 41 38 35 30 25 18 13 12 14 15 15 17 18 16 14 13 14 13 12 15 17 15 14 14 14 13 13 13 14
37 38 38 38 37 35 33 33 34 35 36 36 35 35 35 35 35 35 35 33 32 33 34 35 37 39 41 42 42 41 40 39 39 40 41 40 37 34 32 27 20 15 14 15 14 15 14 14 13 12 11 10 9 10 12 12 12 14 16 16 16 16 16
37 37 38 38 37 34 32 32 34 35 36 36 35 35 34 34 34 34 34 33 32 32 32 34 36 37 39 41 41 40 39 39 38 38 39 39 39 37 34 33 29 23 18 14 12 11 11 12 12 11 9 9 11 10 11 12 14 17 19 18 18 18 17
36 37 37 38 37 34 31 32 33 34 35 36 36 35 34 33 33 33 33 32 32 31 31 33 34 36 38 39 39 39 39 38 37 37 38 38 39 38 36 34 32 29 25 21 17 14 12 10 11 10 10 11 13 14 14 15 18 20 20 19 18 17 16
36 37 37 38 36 33 31 31 33 34 34 36 36 35 33 33 33 32 32 31 31 30 30 31 33 34 36 37 38 39 39 37 37 36 37 38 38 38 38 36 34 31 28 26 23 20 18 15 13 13 13 14 15 16 17 17 18 19 19 18 17 16 14
36 37 37 37 36 33 30 30 32 34 34 35 36 35 33 32 33 32 31 31 30 29 29 30 31 32 34 35 36 38 39 38 36 36 36 37 37 37 37 36 35 32 30 27 25 23 22 20 18 16 15 15 15 15 16 17 17 17 17 16 15 14 13
35 36 37 37 35 32 30 30 32 34 34 34 35 35 33 32 32 31 30 29 28 27 27 28 29 30 31 33 34 37 38 38 36 35 35 35 36 36 35 35 34 34 32 30 27 24 22 20 18 17 15 14 14 14 14 14 15 15 14 14 13 12 10
35 36 36 35 33 31 29 29 31 33 34 34 35 35 33 32 32 31 29 28 27 25 25 26 26 28 29 31 32 34 37 37 36 35 35 35 35 35 34 34 34 34 34 32 29 26 22 19 17 15 14 12 12 11 10 10 11 11 11 11 10 9 8
34 35 35 34 32 30 28 28 31 33 34 34 34 35 34 31 31 31 29 27 25 24 23 24 25 26 27 28 30 32 34 36 35 34 33 33 33 33 33 34 34 34 33 33 31 28 25 21 17 14 12 10 9 8 7 7 7 7 7 7 7 6 5
33 34 34 32 30 29 28 28 30 32 34 34 34 35 34 31 31 30 28 26 24 22 22 23 23 24 25 26 28 29 32 34 34 33 31 31 32 32 32 33 33 33 33 32 31 30 28 24 21 16 12 9 7 6 5 4 4 3 3 4 4 4 3
33 33 33 30 29 29 27 27 29 31 33 34 34 34 34 32 30 30 28 25 23 22 21 21 22 22 23 25 26 27 29 31 32 32 30 29 30 31 31 31 32 32 32 32 31 30 28 27 24 20 17 12 8 5 4 2 2 1 0 0 1 1 1
32 33 31 29 28 28 27 26 28 30 32 33 34 34 34 32 30 28 27 25 23 22 20 20 21 21 22 23 24 25 27 29 30 30 30 29 28 29 29 29 29 30 30 31 31 31 29 28 26 23 21 18 14 9 6 4 3 3 3 3 3 3 3
31 32 30 29 28 28 26 26 28 29 31 32 33 33 34 32 30 28 26 25 23 21 20 19 20 20 20 21 22 23 25 26 27 28 29 29 28 27 27 27 27 27 28 29 29 30 30 30 28 26 23 21 18 15 11 8 7 6 6 6 6 6 5
31 31 29 28 28 27 26 26 27 29 30 31 32 32 33 32 30 28 26 25 23 21 20 19 19 19 19 20 20 21 22 24 25 26 27 28 28 27 27 26 26 25 26 26 27 28 29 29 30 29 27 24 21 18 15 12 10 9 9 8 8 8 8
30 30 28 27 27 27 26 27 28 29 29 30 30 31 31 31 31 29 26 24 23 21 20 19 18 18 18 18 19 19 20 21 23 24 25 26 27 27 27 27 26 25 24 24 25 26 26 27 28 29 29 28 25 22 19 16 12 10 11 11 10 10 10
29 29 27 27 26 26 27 27 28 28 28 28 29 29 30 30 30 29 27 25 23 21 20 19 18 18 18 18 18 18 19 19 20 22 23 24 25 26 26 26 26 25 25 24 24 24 24 25 26 27 28 29 28 26 24 20 16 12 10 12 12 11 11
28 28 27 26 26 26 27 27 27 28 28 28 28 29 29 29 29 28 27 25 23 22 20 19 18 17 17 17 17 17 17 18 19 20 21 21 22 24 24 25 25 25 25 25 24 23 23 23 24 25 26 27 29 29 28 25 21 17 11 11 14 14 12
27 27 26 25 25 26 26 27 27 27 28 28 28 28 28 28 28 27 26 25 24 22 21 20 18 17 16 16 16 15 16 16 17 18 18 19 20 21 23 23 24 24 24 24 24 23 22 22 23 23 24 25 27 29 29 28 26 23 17 11 12 15 15
26 25 24 24 25 25 26 26 27 27 28 28 28 28 28 28 27 27 26 25 23 22 21 20 19 18 16 16 15 15 15 15 16 16 17 17 18 19 21 22 23 23 23 23 23 23 22 22 22 22 23 23 25 27 29 30 29 27 23 16 10 13 16
25 24 23 23 24 25 26 26 27 27 28 28 28 28 27 27 27 26 26 25 23 22 21 20 19 18 17 16 15 14 14 14 14 15 15 16 16 17 19 20 21 22 22 22 23 23 22 22 22 22 22 22 23 25 27 29 30 30 28 22 13 9 14
23 22 22 23 24 25 25 26 27 27 27 28 28 27 27 27 26 26 25 25 24 23 22 21 19 19 18 16 15 14 14 13 13 14 14 15 15 16 17 18 19 20 21 21 21 21 22 22 22 22 22 22 23 24 26 28 30 32 32 29 20 9 10
Wind_Direction
358 357 357 357 356 355 355 353 352 351 351 350 350 350 350 350 349 350 349 349 351 353 352 351 351 353 353 352 352 352 353 354 353 352 349 345 347 350 353 357 1 5 7 10 30 34 12 348 338 341 301 226 187 196 212 210 208 211 206 197 194 195 196
359 358 358 357 356 356 355 353 352 352 352 352 353 353 353 352 352 352 350 352 355 355 353 353 354 356 357 355 354 354 354 354 355 355 352 350 353 356 0 4 9 14 16 20 34 32 18 14 26 50 122 133 141 179 211 212 204 202 198 187 183 194 197
359 359 358 358 357 356 355 354 353 354 354 355 356 355 355 355 354 352 352 355 357 356 355 354 356 359 360 358 357 356 355 357 358 358 356 356 359 4 8 13 18 24 29 32 36 39 38 40 66 102 116 123 140 161 183 192 190 186 186 179 173 188 197
360 359 359 358 357 357 356 356 355 356 357 358 358 358 358 357 355 354 354 357 358 357 356 356 359 2 2 1 359 357 358 359 359 1 0 359 3 10 17 22 28 34 37 38 46 52 48 57 89 114 110 111 139 150 149 167 173 170 171 177 178 186 193
360 359 359 358 357 358 357 357 357 358 358 359 1 1 360 358 357 355 357 359 358 358 358 358 1 4 5 4 2 360 0 0 1 3 3 2 10 20 23 29 35 38 40 41 47 52 59 80 100 114 106 105 137 144 141 153 158 160 162 173 183 186 185
360 359 359 358 358 358 358 358 359 359 0 2 3 3 2 0 358 357 359 359 359 359 359 360 3 6 7 6 4 3 3 2 2 6 6 3 12 26 29 31 34 35 43 47 48 62 82 96 98 106 111 125 146 139 139 150 153 158 157 159 177 188 183
360 360 359 359 359 359 358 359 0 1 2 3 4 4 3 2 0 360 359 359 0 1 1 2 5 8 10 8 7 7 7 5 5 10 13 6 10 29 35 35 37 41 51 55 59 75 90 92 88 96 113 131 144 138 140 148 151 159 157 148 167 184 183
360 0 359 359 359 358 358 1 1 1 3 4 4 4 4 3 2 1 359 359 2 3 2 4 6 10 12 11 9 10 10 8 10 14 19 16 13 26 38 39 40 44 50 60 72 86 89 84 81 95 113 126 137 137 140 141 141 158 166 155 159 169 172
360 0 360 359 359 358 359 2 1 1 3 4 4 4 5 4 3 2 360 0 3 3 3 5 6 11 14 14 11 12 13 12 13 16 22 26 23 26 36 39 38 42 50 64 80 91 88 77 76 96 113 122 134 137 137 131 127 153 165 149 145 158 169
360 0 360 359 359 358 360 2 0 1 3 5 5 5 5 4 4 3 1 1 3 4 4 5 7 10 14 16 14 13 15 16 17 18 21 27 30 32 36 37 38 43 55 70 81 88 86 78 80 95 109 120 138 144 137 120 127 153 156 129 132 150 165
360 0 360 360 359 358 1 1 359 0 3 4 5 5 5 5 5 4 2 2 3 4 5 6 7 9 13 17 16 14 16 19 20 20 23 27 30 33 37 42 46 49 61 75 77 80 87 81 75 87 117 131 140 143 129 118 136 159 157 128 131 142 154
360 0 359 360 359 358 1 1 358 360 2 4 5 6 6 5 5 5 3 2 3 4 5 7 8 9 12 16 19 16 16 20 22 22 26 30 30 33 37 44 54 61 71 78 73 76 76 54 59 89 128 134 130 127 118 117 134 154 151 124 124 134 145
359 360 359 359 359 358 1 1 358 359 2 4 6 6 6 6 6 6 4 3 4 4 5 7 8 9 11 14 19 19 17 20 24 24 27 33 35 36 39 45 58 70 78 79 75 72 49 36 60 101 129 129 128 131 122 113 127 142 136 115 117 127 134
359 359 359 359 359 358 0 1 359 359 2 4 6 7 7 7 6 6 6 4 5 5 5 7 8 9 11 13 18 21 19 21 25 26 28 33 39 42 45 52 66 77 81 77 69 58 37 38 70 107 122 124 132 139 131 116 121 130 122 115 119 121 122
358 359 358 359 358 358 360 1 360 360 2 4 6 7 7 7 7 7 7 6 6 5 6 8 10 10 11 13 17 21 22 22 25 28 29 32 36 42 47 56 67 73 72 62 51 41 33 42 75 105 115 124 135 143 144 133 123 121 119 115 109 101 104
357 358 358 358 358 358 359 1 0 0 2 4 6 7 8 8 8 8 8 7 7 7 7 9 10 12 12 12 16 21 24 24 25 28 31 32 34 35 36 44 54 57 48 38 33 29 33 48 74 97 111 120 122 126 132 130 120 114 109 103 98 97 103
356 357 357 357 357 357 359 1 1 1 3 4 5 7 9 10 9 9 10 9 8 8 9 10 11 13 13 12 14 19 24 26 27 28 31 33 34 34 32 30 32 37 30 24 22 22 35 61 76 84 102 110 105 106 110 114 117 113 107 106 106 109 112
354 355 356 357 357 357 358 0 1 2 3 4 5 8 10 11 10 11 11 11 10 9 10 12 12 14 15 13 13 18 24 27 28 29 31 33 34 34 35 34 32 34 30 21 19 27 46 74 81 77 89 98 95 97 104 115 124 118 113 114 116 118 119
353 354 355 356 356 356 358 360 1 2 3 3 5 8 11 12 12 12 12 12 12 11 11 13 14 15 16 14 14 19 23 27 30 30 31 33 34 34 36 37 37 40 44 42 41 51 65 77 77 76 86 96 100 105 113 125 126 119 117 119 121 122 123
352 353 354 354 356 356 357 359 1 2 3 3 5 7 10 13 13 13 13 13 14 13 12 14 15 16 17 16 17 20 22 26 29 31 31 33 35 35 35 37 38 39 43 50 58 68 76 79 83 90 98 103 106 110 115 118 116 115 118 120 121 121 119
351 352 353 354 355 356 356 359 1 2 3 4 5 7 9 12 14 14 14 14 15 14 14 15 16 17 18 18 20 22 23 25 29 31 32 32 34 36 35 36 38 38 39 43 50 59 67 73 82 91 97 100 102 103 107 109 110 113 116 116 116 115 109
350 351 352 353 355 355 356 358 0 2 3 4 5 6 7 11 14 15 15 15 15 15 15 16 16 17 18 20 22 24 24 25 28 31 33 33 33 35 36 36 36 38 39 39 43 50 59 66 72 77 84 90 94 97 101 105 107 108 108 108 107 105 102
349 350 351 353 354 354 355 358 360 2 3 5 6 6 7 10 13 15 15 15 15 15 16 17 17 17 18 21 24 26 26 26 27 31 33 34 33 34 36 37 37 37 38 38 37 40 47 58 67 72 76 81 86 92 97 101 103 103 104 104 102 100 100
348 350 351 352 353 353 354 357 360 1 3 4 5 6 6 10 13 14 15 15 16 16 16 18 19 18 18 21 24 27 28 28 28 30 33 34 34 34 34 36 37 37 38 38 36 35 36 43 54 64 69 73 79 85 89 94 99 101 103 105 105 105 103
348 349 350 351 352 352 353 356 359 1 3 4 5 6 7 9 12 14 15 15 15 15 16 18 20 19 18 21 24 26 28 29 30 31 33 34 35 35 35 36 37 38 39 38 38 36 34 32 36 44 52 58 64 70 75 80 86 93 100 105 109 113 112
346 348 349 350 351 351 352 355 358 0 2 3 4 5 6 9 12 13 14 14 14 15 16 17 19 19 18 20 22 25 28 30 30 32 34 34 34 35 37 38 38 39 39 38 38 37 36 33 29 27 29 33 40 49 53 56 65 80 96 110 119 124 123
345 347 348 349 350 351 352 355 358 359 1 2 3 4 6 8 11 12 12 13 13 14 15 17 18 18 18 18 20 23 26 28 29 31 33 33 33 34 36 38 40 40 40 39 38 37 36 35 31 26 21 16 12 14 20 13 357 335 321 156 167 164 165
344 346 347 349 349 351 352 354 357 358 0 1 2 3 5 7 10 11 11 11 12 13 14 15 16 17 17 18 18 20 24 27 28 28 30 31 31 31 32 34 37 39 40 39 38 37 36 35 32 29 24 18 8 357 344 328 304 279 262 255 253 251 247
344 345 347 348 349 350 352 354 356 358 360 1 1 2 3 5 8 10 10 11 11 12 13 13 14 14 15 16 17 18 21 26 26 26 28 29 28 28 27 28 31 33 35 36 35 35 35 34 32 30 27 22 16 5 348 324 303 286 269 257 255 258 259
343 345 346 347 349 351 352 354 355 357 359 360 0 1 1 3 5 8 10 10 10 10 10 11 12 12 11 12 15 16 19 23 24 24 27 28 27 26 25 24 24 25 27 29 30 31 31 31 31 30 27 24 20 14 4 343 313 290 279 269 261 258 261
343 345 346 347 349 351 353 354 356 357 358 359 359 360 0 1 3 6 8 10 10 8 7 8 10 10 8 8 11 14 16 21 22 22 24 27 27 25 24 23 21 19 19 20 22 25 26 26 27 27 27 25 21 17 13 3 341 304 279 269 263 258 255
343 344 345 347 349 352 354 355 355 356 356 357 358 358 359 1 2 4 6 8 8 7 5 6 7 8 6 4 5 9 12 16 20 20 21 23 25 25 24 22 20 18 16 14 15 17 20 22 23 23 24 23 21 18 14 10 2 339 294 266 256 252 250
342 344 345 348 350 352 354 354 354 354 354 356 356 357 358 359 1 3 5 6 7 6 5 4 4 4 3 1 0 3 7 11 16 17 17 19 21 22 22 21 20 18 16 14 12 12 13 16 19 21 21 21 20 19 16 12 7 359 334 281 254 246 245
342 343 346 349 350 352 352 352 352 352 353 354 355 355 356 357 359 2 4 6 5 4 3 3 2 1 360 358 356 357 0 6 11 13 13 14 17 19 20 18 18 18 16 15 13 12 11 12 14 17 19 20 19 18 17 14 10 4 355 323 268 247 242
342 344 347 349 350 350 350 350 350 351 352 353 353 353 354 355 357 359 2 5 5 3 1 360 359 359 358 356 354 352 354 360 5 7 7 8 11 16 17 15 15 14 14 14 14 13 11 10 11 12 15 17 18 18 17 16 13 9 3 351 304 254 242
341 344 347 348 348 348 348 349 350 350 351 351 351 351 352 353 355 356 359 2 4 3 1 358 356 356 355 354 351 350 350 354 358 1 2 2 5 10 12 11 11 11 10 10 12 13 12 11 9 10 11 13 15 16 16 16 15 12 8 2 342 276 244
341 344 346 347 346 346 347 348 349 349 349 349 349 350 351 352 354 354 355 358 0 2 1 359 356 354 352 351 348 347 347 348 350 355 357 357 360 5 7 7 8 8 6 6 8 11 11 11 10 10 9 10 12 14 15 15 15 14 12 8 0 325 251
Height
5774 5771 5767 5764 5760 5756 5752 5748 5744 5740 5736 5732 5727 5723 5718 5713 5708 5703 5699 5695 5690 5685 5680 5674 5669 5663 5656 5649 5643 5637 5632 5627 5621 5615 5609 5605 5600 5594 5587 5582 5578 5575 5574 5573 5572 5571 5572 5573 5574 5574 5575 5576 5579 5582 5584 5588 5592 5596 5600 5605 5610 5615 5620
5774 5770 5767 5763 5759 5755 5752 5747 5743 5739 5735 5731 5726 5721 5717 5712 5707 5703 5698 5694 5689 5685 5680 5674 5668 5662 5656 5649 5643 5637 5632 5626 5620 5613 5609 5604 5600 5594 5587 5582 5579 5577 5576 5574 5573 5573 5572 5573 5573 5574 5574 5575 5579 5582 5584 5587 5591 5595 5600 5605 5611 5616 5618
5773 5770 5766 5763 5759 5755 5751 5747 5743 5738 5734 5730 5725 5720 5716 5711 5706 5702 5698 5693 5689 5685 5679 5674 5668 5662 5655 5649 5642 5637 5632 5626 5619 5613 5608 5604 5600 5594 5588 5584 5581 5579 5578 5576 5575 5574 5574 5574 5574 5574 5575 5576 5579 5582 5583 5586 5590 5594 5600 5605 5610 5614 5616
5773 5769 5766 5762 5759 5755 5750 5746 5742 5738 5733 5729 5724 5720 5715 5710 5706 5702 5698 5693 5689 5685 5679 5674 5668 5662 5655 5648 5642 5637 5631 5625 5618 5612 5608 5604 5600 5595 5590 5586 5584 5582 5580 5579 5578 5576 5575 5575 5575 5576 5577 5578 5580 5582 5584 5588 5592 5595 5601 5606 5608 5612 5615
5773 5769 5765 5762 5758 5754 5750 5746 5742 5737 5732 5728 5724 5719 5715 5710 5706 5702 5697 5694 5690 5685 5679 5674 5668 5662 5656 5649 5642 5637 5631 5625 5619 5613 5608 5605 5600 5596 5592 5589 5586 5584 5583 5582 5580 5579 5578 5578 5578 5579 5580 5582 5584 5586 5588 5591 5594 5598 5603 5607 5609 5613 5616
5773 5769 5765 5761 5758 5753 5749 5745 5741 5736 5732 5727 5723 5719 5715 5711 5707 5702 5698 5694 5690 5685 5680 5674 5668 5662 5656 5650 5643 5637 5631 5626 5620 5614 5609 5605 5601 5598 5595 5591 5589 5587 5586 5584 5583 5581 5581 5581 5582 5583 5583 5584 5586 5589 5591 5593 5596 5600 5604 5608 5612 5615 5617
5772 5768 5765 5761 5757 5753 5749 5745 5741 5736 5732 5728 5724 5720 5716 5711 5707 5702 5698 5694 5690 5685 5680 5675 5669 5664 5658 5652 5645 5639 5633 5628 5622 5615 5610 5607 5603 5600 5598 5595 5592 5590 5588 5587 5586 5585 5585 5585 5586 5586 5586 5587 5588 5591 5594 5596 5599 5603 5605 5609 5613 5616 5618
5772 5769 5765 5761 5757 5753 5749 5745 5741 5737 5732 5728 5724 5720 5716 5711 5707 5702 5698 5695 5690 5686 5681 5676 5671 5665 5660 5653 5647 5640 5635 5630 5624 5617 5612 5610 5607 5603 5601 5599 5596 5594 5592 5590 5589 5589 5589 5589 5590 5589 5589 5590 5591 5593 5596 5599 5603 5606 5608 5611 5614 5617 5620
5772 5768 5765 5761 5758 5754 5750 5745 5741 5737 5733 5728 5724 5720 5716 5711 5707 5703 5699 5695 5691 5687 5682 5678 5672 5667 5662 5656 5650 5643 5638 5632 5626 5620 5615 5612 5609 5606 5604 5603 5600 5598 5596 5594 5593 5594 5593 5593 5594 5593 5593 5594 5595 5596 5598 5602 5605 5609 5611 5613 5615 5617 5621
5772 5768 5765 5761 5758 5754 5750 5745 5741 5737 5733 5729 5724 5720 5716 5712 5708 5703 5699 5695 5692 5688 5683 5679 5674 5669 5664 5658 5653 5646 5640 5634 5628 5623 5618 5614 5611 5609 5607 5605 5603 5601 5600 5599 5598 5598 5597 5597 5597 5597 5597 5598 5599 5600 5602 5604 5607 5610 5613 5614 5616 5618 5621
5772 5769 5765 5761 5758 5754 5750 5745 5742 5738 5734 5729 5725 5721 5717 5712 5708 5704 5700 5696 5693 5689 5685 5680 5675 5670 5665 5661 5655 5649 5643 5638 5632 5626 5622 5618 5614 5611 5610 5608 5606 5605 5603 5603 5603 5602 5601 5601 5601 5600 5601 5602 5603 5604 5605 5607 5610 5613 5615 5616 5618 5620 5622
5772 5769 5765 5761 5758 5754 5750 5746 5742 5738 5734 5730 5726 5721 5717 5713 5709 5705 5701 5697 5694 5690 5686 5682 5677 5672 5668 5663 5658 5653 5647 5641 5635 5630 5627 5623 5618 5615 5613 5611 5609 5608 5608 5607 5607 5606 5606 5605 5604 5604 5603 5605 5607 5608 5609 5611 5613 5616 5617 5619 5620 5622 5625
5772 5769 5765 5761 5758 5754 5750 5746 5742 5739 5735 5731 5726 5722 5718 5714 5710 5706 5702 5698 5695 5691 5688 5684 5679 5674 5670 5665 5661 5656 5650 5645 5640 5635 5631 5627 5623 5620 5618 5616 5614 5613 5612 5612 5611 5611 5610 5608 5607 5608 5608 5609 5611 5612 5614 5615 5617 5619 5620 5621 5623 5625 5626
5772 5769 5765 5761 5758 5754 5750 5746 5743 5739 5735 5731 5727 5723 5719 5715 5711 5707 5703 5700 5696 5693 5689 5685 5681 5677 5672 5668 5663 5659 5654 5649 5644 5639 5635 5632 5629 5626 5624 5622 5620 5618 5617 5617 5616 5615 5614 5612 5612 5612 5613 5614 5615 5616 5618 5619 5620 5621 5622 5624 5625 5627 5628
5772 5769 5765 5761 5758 5754 5751 5747 5743 5740 5736 5732 5728 5724 5720 5716 5712 5708 5705 5701 5698 5695 5691 5687 5683 5679 5674 5670 5666 5662 5657 5652 5648 5643 5640 5636 5633 5631 5629 5627 5625 5624 5622 5622 5621 5620 5618 5617 5617 5617 5617 5618 5619 5620 5621 5621 5622 5623 5624 5626 5627 5628 5628
5772 5768 5765 5761 5758 5754 5751 5748 5744 5740 5736 5733 5729 5725 5721 5716 5713 5710 5706 5702 5700 5696 5693 5689 5685 5681 5677 5672 5668 5664 5660 5656 5651 5647 5644 5640 5637 5635 5633 5631 5630 5628 5627 5626 5625 5624 5623 5622 5621 5621 5622 5622 5622 5623 5623 5625 5625 5625 5626 5628 5629 5629 5630
5772 5768 5765 5761 5758 5754 5751 5748 5744 5741 5737 5733 5730 5726 5722 5718 5714 5711 5707 5704 5701 5698 5695 5691 5687 5683 5679 5675 5671 5667 5663 5659 5655 5651 5647 5644 5641 5639 5637 5635 5633 5631 5630 5629 5628 5628 5627 5626 5625 5625 5625 5625 5625 5625 5625 5627 5627 5627 5628 5630 5631 5632 5633
5771 5768 5764 5761 5758 5755 5752 5748 5745 5741 5737 5734 5730 5727 5723 5719 5715 5712 5709 5705 5703 5700 5697 5694 5690 5686 5682 5678 5674 5670 5666 5662 5659 5655 5652 5648 5645 5643 5640 5638 5636 5633 5632 5632 5631 5631 5631 5630 5629 5629 5629 5629 5628 5628 5628 5629 5629 5629 5631 5632 5633 5635 5636
5771 5768 5764 5761 5758 5755 5752 5749 5745 5742 5738 5735 5731 5727 5724 5720 5716 5713 5710 5707 5704 5702 5699 5696 5692 5689 5685 5681 5677 5672 5669 5665 5662 5659 5656 5652 5649 5646 5644 5642 5639 5637 5636 5635 5634 5634 5634 5633 5632 5632 5633 5632 5632 5632 5632 5632 5632 5632 5633 5634 5636 5637 5638
5771 5767 5764 5761 5758 5755 5752 5749 5746 5742 5739 5735 5732 5728 5725 5721 5718 5714 5711 5708 5706 5703 5701 5698 5695 5691 5688 5684 5680 5676 5672 5668 5665 5662 5659 5656 5653 5650 5647 5645 5643 5642 5640 5639 5638 5637 5637 5636 5636 5635 5636 5636 5636 5636 5636 5636 5636 5635 5636 5637 5638 5639 5640
5771 5767 5764 5761 5757 5755 5752 5749 5746 5743 5740 5736 5733 5729 5726 5722 5719 5716 5713 5710 5707 5705 5702 5700 5697 5694 5691 5687 5683 5679 5675 5672 5668 5665 5662 5659 5657 5654 5651 5649 5647 5646 5644 5643 5642 5640 5640 5639 5639 5639 5639 5639 5639 5639 5639 5639 5639 5639 5639 5640 5640 5641 5641
5770 5767 5764 5760 5757 5755 5752 5749 5746 5743 5740 5737 5733 5730 5727 5723 5720 5717 5714 5711 5709 5706 5704 5701 5699 5696 5693 5690 5686 5682 5678 5675 5672 5669 5666 5663 5661 5658 5656 5653 5651 5650 5648 5647 5645 5644 5644 5643 5643 5643 5643 5642 5642 5641 5641 5641 5641 5641 5641 5642 5642 5642 5642
5770 5766 5763 5760 5757 5755 5752 5749 5747 5744 5741 5737 5734 5731 5728 5724 5721 5718 5715 5712 5710 5708 5705 5703 5701 5698 5695 5692 5689 5685 5681 5678 5675 5672 5669 5667 5664 5662 5660 5658 5656 5653 5651 5649 5648 5648 5647 5647 5647 5647 5646 5646 5645 5645 5645 5644 5643 5643 5643 5643 5643 5643 5643
5769 5766 5763 5760 5757 5755 5752 5749 5747 5744 5741 5738 5735 5732 5728 5725 5722 5719 5716 5713 5711 5709 5707 5705 5703 5700 5697 5694 5691 5688 5685 5681 5678 5675 5672 5670 5668 5665 5663 5661 5659 5657 5654 5653 5652 5651 5650 5649 5649 5649 5649 5649 5648 5648 5648 5647 5646 5645 5645 5645 5645 5645 5645
5769 5766 5763 5760 5757 5755 5752 5749 5747 5744 5741 5738 5735 5732 5729 5726 5723 5720 5717 5715 5713 5711 5709 5707 5704 5702 5699 5697 5694 5691 5688 5685 5681 5678 5676 5673 5671 5669 5667 5664 5662 5660 5658 5657 5655 5654 5652 5652 5651 5650 5650 5650 5650 5649 5649 5649 5648 5647 5647 5647 5646 5646 5646
5768 5765 5762 5760 5757 5755 5752 5750 5747 5744 5741 5738 5735 5732 5730 5727 5724 5721 5718 5716 5714 5712 5710 5708 5706 5704 5701 5699 5696 5693 5690 5687 5685 5682 5679 5677 5675 5672 5670 5668 5666 5664 5662 5660 5659 5657 5655 5654 5653 5652 5652 5651 5651 5650 5650 5649 5649 5649 5648 5648 5648 5648 5648
5768 5765 5762 5760 5757 5755 5752 5750 5747 5744 5741 5738 5736 5733 5730 5727 5724 5722 5719 5717 5715 5713 5711 5709 5707 5705 5703 5700 5698 5696 5693 5690 5688 5685 5683 5680 5678 5676 5673 5671 5669 5667 5665 5664 5662 5660 5659 5657 5655 5654 5653 5652 5651 5651 5650 5650 5650 5650 5649 5649 5649 5648 5648
5767 5764 5762 5760 5757 5755 5752 5750 5748 5745 5742 5739 5736 5733 5730 5728 5725 5723 5720 5718 5716 5714 5712 5710 5708 5706 5704 5702 5700 5698 5695 5692 5690 5688 5685 5683 5681 5678 5676 5674 5673 5671 5669 5667 5665 5663 5662 5660 5658 5656 5654 5653 5652 5651 5650 5650 5650 5650 5650 5650 5649 5649 5649
5766 5764 5762 5759 5757 5755 5753 5750 5748 5745 5743 5739 5736 5733 5731 5728 5726 5723 5721 5719 5716 5714 5712 5711 5709 5707 5705 5703 5701 5699 5697 5694 5692 5690 5687 5685 5683 5681 5679 5677 5675 5673 5671 5670 5668 5666 5664 5662 5660 5658 5656 5654 5653 5651 5650 5650 5649 5649 5649 5649 5649 5649 5649
5766 5763 5761 5759 5757 5755 5753 5751 5748 5746 5743 5740 5737 5734 5731 5728 5726 5724 5721 5719 5717 5715 5713 5711 5710 5708 5706 5704 5703 5701 5698 5696 5694 5692 5690 5687 5685 5683 5681 5679 5677 5675 5673 5672 5669 5667 5665 5664 5662 5660 5658 5656 5654 5653 5651 5650 5649 5648 5648 5648 5648 5648 5648
5765 5763 5761 5759 5757 5755 5753 5751 5748 5746 5743 5740 5737 5735 5732 5729 5726 5724 5722 5720 5718 5716 5714 5712 5710 5708 5707 5705 5703 5702 5700 5697 5695 5693 5691 5689 5687 5684 5682 5680 5679 5677 5675 5673 5671 5669 5667 5665 5663 5661 5659 5657 5655 5654 5652 5650 5648 5647 5647 5647 5647 5646 5646
5765 5762 5760 5759 5757 5755 5753 5750 5748 5745 5743 5740 5738 5735 5733 5730 5727 5724 5722 5720 5718 5716 5714 5712 5710 5709 5707 5706 5704 5702 5700 5699 5697 5695 5693 5690 5688 5686 5684 5682 5680 5678 5676 5674 5673 5671 5669 5666 5664 5662 5660 5658 5656 5654 5652 5650 5648 5647 5646 5645 5645 5645 5645
5764 5762 5760 5758 5756 5754 5752 5750 5747 5745 5742 5740 5738 5735 5733 5730 5728 5725 5723 5720 5718 5716 5715 5713 5711 5709 5707 5706 5704 5703 5701 5699 5697 5695 5694 5692 5690 5688 5686 5684 5682 5680 5678 5676 5674 5672 5670 5668 5666 5664 5661 5659 5657 5654 5652 5650 5648 5646 5644 5643 5643 5643 5643
5763 5761 5759 5758 5756 5754 5751 5749 5747 5744 5742 5740 5737 5735 5733 5730 5728 5726 5723 5721 5718 5716 5715 5713 5711 5709 5708 5706 5704 5703 5701 5700 5698 5696 5695 5693 5691 5689 5687 5685 5683 5681 5679 5677 5675 5673 5671 5669 5667 5665 5663 5660 5658 5656 5653 5650 5648 5645 5643 5642 5641 5641 5641
5763 5761 5759 5757 5755 5753 5751 5748 5746 5744 5742 5739 5737 5735 5732 5730 5728 5726 5723 5721 5719 5717 5715 5713 5711 5709 5708 5706 5705 5703 5702 5700 5698 5697 5695 5693 5692 5690 5688 5686 5684 5682 5680 5678 5676 5674 5672 5670 5668 5666 5664 5662 5659 5657 5654 5651 5648 5645 5643 5640 5639 5638 5638
5762 5760 5758 5756 5754 5752 5750 5748 5745 5743 5741 5739 5737 5735 5732 5730 5727 5725 5723 5721 5719 5717 5715 5713 5711 5709 5708 5706 5705 5703 5702 5700 5698 5697 5695 5694 5692 5690 5688 5686 5685 5683 5681 5679 5677 5675 5673 5671 5669 5667 5665 5662 5660 5658 5655 5652 5649 5646 5643 5640 5637 5636 5636
5761 5759 5757 5756 5754 5751 5749 5747 5745 5743 5741 5739 5736 5734 5732 5730 5727 5725 5723 5721 5719 5717 5715 5713 5711 5709 5707 5706 5704 5703 5701 5700 5698 5697 5695 5694 5692 5690 5689 5687 5685 5683 5681 5680 5678 5676 5674 5672 5670 5667 5665 5663 5660 5658 5655 5653 5650 5646 5643 5639 5637 5635 5634